Location: Aboncourt
(47.7710°N, 5.9826°E)
Time: 02:41:07
(UTC+00:00)

ATLAS 5 CENTAUR R/B - Pass Details

Date: 05 July 2020
Orbit: 534 x 1124 km, 63.4° (Epoch: 30 July)

Event Time Altitude Azimuth Distance (km) Brightness Sun altitude
Rises 21:04:54 0° 226° (SW) 2,708 4.8 -11.3°
Reaches altitude 10° 21:07:00 10° 229° (SW) 1,853 4.0 -11.5°
Maximum altitude 21:11:07 69° 314° (NW) 653 1.9 -11.9°
Drops below altitude 10° 21:15:49 10° 37° (NE) 2,111 4.5 -12.4°
Sets 21:18:21 0° 40° (NE) 3,125 5.4 -12.6°
